Location: Abundant Grace Fellowship
(35.0349°N, 90.0924°W)
Time: 20:15:05
(UTC+00:00)

ARIANE 6 FM1 Upper Stage - Pass Details

Date: 18 January 2026
Orbit: 522 x 609 km, 62.0° (Epoch: 10 February)

Event Time Altitude Azimuth Distance (km) Brightness Sun altitude
Exits shadow 11:41:40 21° 229° (SW) 1,239 4.1 -17.3°
Drops below altitude 10° 11:44:05 10° 193° (SSW) 1,797 5.2 -16.9°
Sets 11:46:40 0° 178° (S) 2,701 6.4 -16.4°
